Vertical_Velocity
1 -1 1 1 -1 0 0 1 -0 -1 0 -1 -1 -0 1 -0 -0 1 -3 1 -1 -0 -0 0 2 -1 0 -1 -0 1 -6 -0 1 -1 -0 2 -1 1 1 0 2 -0 0 -1 0
-0 -1 -2 0 1 -1 -1 1 1 -0 -1 -0 -1 -1 0 1 -1 -1 -0 1 0 0 2 -2 -2 -0 -1 -1 -1 -6 -3 1 1 1 0 1 -3 0 -2 2 1 0 2 2 2
-1 0 -1 -1 -1 0 -0 -1 1 -0 1 0 0 -1 1 0 1 -0 -0 -1 0 -1 -1 -1 1 0 -2 -1 -0 2 -2 -0 1 1 2 0 -1 1 -0 -1 3 -0 1 2 2
-0 0 -1 -1 0 -1 -1 -0 -0 0 -1 -0 -1 1 -1 1 -1 -1 0 1 -0 -0 0 -0 1 0 -2 -1 1 -7 1 -1 1 -1 -2 -1 2 -0 -3 1 3 4 2 1 6
0 -0 0 -1 0 -1 1 -1 0 2 2 1 0 -1 -0 -1 -3 -0 1 1 1 -0 -0 -1 1 1 -2 -1 -2 -3 1 -1 0 -0 -1 -0 0 -1 0 4 -0 2 5 6 0
-1 0 1 -1 0 -2 1 -0 -2 -1 1 2 1 1 -0 -4 -1 -1 -0 1 -0 -0 -2 -2 -0 3 -3 -1 -3 1 -1 -0 2 1 -1 -2 1 -2 2 3 0 1 1 4 2
-1 -2 -2 1 1 1 -1 1 1 0 -1 -1 0 1 1 0 0 -0 -2 -2 -2 -1 -1 0 1 1 1 -0 4 -1 -4 -0 1 1 0 -2 -0 -0 1 0 6 2 2 2 2
-1 -2 -1 -2 -0 1 0 -0 0 -2 1 -0 -2 0 -2 -2 -1 0 1 -1 -1 0 -0 -0 -1 -3 -1 2 -1 -1 -4 -2 -2 -1 -0 -6 -2 1 -0 -4 1 2 3 -1 1
-0 -0 -2 -1 -2 -1 -3 0 1 2 -3 2 -1 1 -0 2 1 -1 -2 -0 -0 -1 -0 0 -2 -2 -1 -2 -3 -1 -1 0 -1 0 -0 -3 -1 -0 1 -1 1 5 1 0 -0
-0 0 0 -1 -1 -3 -1 -3 -2 -1 1 1 0 2 -0 -1 1 0 -1 -2 -1 -1 -1 -1 -2 -3 -3 -4 -4 -1 -1 -1 -1 -3 -0 -1 -1 1 -0 0 0 4 5 1 0
0 1 -0 -1 -0 2 -1 1 -1 -1 2 -4 0 -0 0 -1 -3 1 6 3 -0 0 -1 1 -10 -1 -1 -0 -1 0 0 0 -0 -1 1 -1 0 -1 1 1 2 3 2 1 -0
-1 0 0 3 -2 -1 0 -2 -0 1 -2 1 -1 -2 -1 1 -2 1 -1 -0 2 -1 0 -9 -2 -1 0 0 0 -0 0 -1 -2 0 -0 -1 -2 -0 1 0 2 -3 0 -1 -1
-0 0 1 -1 -3 3 -2 1 -1 -3 0 -0 1 -1 -0 1 -1 -2 -2 0 -1 -2 0 -4 -1 0 -0 -0 -2 0 -1 -0 -2 -2 -1 0 -3 2 1 1 1 2 1 2 -4
0 0 -1 -1 -1 1 0 0 -3 1 -6 -2 0 0 -2 -1 -2 0 -2 -2 -2 -2 -1 -1 -1 0 0 -0 -1 0 -0 0 0 -3 -3 -6 -8 -1 0 1 1 1 -1 -3 -4
2 -2 -0 2 1 0 -0 0 -0 -3 -9 -9 -1 2 3 -3 -0 -2 1 1 -0 1 -7 -2 0 -0 -0 1 -0 -3 0 -0 0 0 -2 -1 -4 -9 -1 1 -1 -1 -2 -4 -1
1 1 -2 5 -2 0 4 -2 4 -23 -15 -0 0 -1 0 1 1 -1 1 -0 0 -1 -2 0 0 -1 -1 -1 -0 -0 -1 -1 -1 -1 -4 -2 -4 -6 -2 -4 1 1 -0 -3 0
-1 3 -2 1 0 1 -1 3 -16 -8 -7 -2 -1 0 -1 -0 0 -1 -2 -3 -3 -6 -1 -1 -0 -0 0 -1 -2 -2 -4 -4 -9 -6 -6 -0 -2 -11 -0 0 -2 -4 -2 -1 1
-1 -1 5 -3 0 2 -1 -8 -3 -6 -2 1 -0 0 -1 -2 -0 1 1 -0 -1 -1 -2 -3 -8 -0 -1 -1 -4 0 -4 -7 -3 -2 -4 -1 -4 -11 0 1 -0 1 2 4 3
2 -2 0 -0 -0 1 3 -2 -11 -3 -4 -2 0 1 0 1 -2 -0 -0 -1 -1 -0 -6 -2 -1 -0 -1 0 -4 -3 -2 -3 -3 -1 -3 -4 -6 -1 1 1 1 1 0 -1 1
-2 -3 -4 5 -0 3 -3 -5 -1 -1 -1 -1 -2 -3 -1 -1 0 1 -1 -2 -0 -1 0 -2 -2 -1 -0 -0 -1 -0 -2 -8 -3 -3 -1 -5 -2 -7 0 -1 -0 1 -2 0 2
2 1 2 2 2 4 -4 -4 -0 -1 -0 -4 -1 -0 -1 -3 -2 -0 -2 -1 0 -0 1 -1 -6 -1 -1 -1 -4 -2 0 0 -5 -4 -4 -1 -10 -4 -3 -3 -2 -3 1 1 2
3 -0 2 0 4 1 -1 -3 0 -0 1 0 -0 -0 -2 -0 -0 0 -4 -3 0 -2 -1 -2 -3 -1 -4 0 1 -0 -2 -2 -5 -4 -1 -3 -17 0 -1 -1 0 -1 -1 0 3
0 -1 4 4 -1 -1 -1 0 0 1 -1 1 -0 -2 -1 -1 -4 -2 0 1 -0 -1 -4 -4 -1 -2 -5 -5 -2 0 -0 -1 -1 -2 -3 -2 -14 0 1 0 -1 -0 2 1 -1
2 -2 5 5 4 -2 -1 -1 -0 1 -0 0 -3 -1 -0 0 0 -1 1 1 1 -0 0 -0 -0 -5 -8 -4 -4 1 1 -0 -2 1 -2 -9 -5 -1 -1 -1 -0 0 -1 -1 -0
1 -7 1 -2 -3 1 1 -2 0 0 -0 2 1 -1 -4 -0 1 -0 1 2 1 0 0 -4 -1 1 -1 -0 1 -1 -1 -0 2 -6 -0 -19 0 -6 -1 -1 -2 -2 -0 1 -0
-0 -0 3 -0 1 2 -0 -3 -2 2 -7 -2 1 -1 0 -3 -8 -3 -5 -2 -6 3 -0 0 -1 -0 -2 -1 1 0 -1 0 -0 -2 2 3 -11 1 1 1 1 -0 1 1 1
-4 -1 2 -2 0 -0 -5 -3 -5 -3 -1 -1 -5 -1 3 -4 -1 2 2 -1 -8 -7 -0 -2 -2 -1 -3 -0 -1 -2 -6 -1 -1 -0 -5 -1 -8 0 2 1 1 1 0 -0 -0
Height
1533 1532 1532 1532 1531 1531 1532 1532 1533 1533 1533 1533 1533 1532 1532 1531 1531 1530 1529 1530 1529 1529 1530 1529 1530 1530 1530 1531 1531 1531 1541 1551 1546 1545 1548 1546 1547 1548 1549 1549 1551 1552 1553 1555 1558
1533 1533 1533 1533 1533 1533 1532 1532 1533 1533 1533 1533 1533 1532 1533 1532 1530 1530 1531 1529 1529 1529 1530 1529 1529 1530 1531 1531 1532 1532 1548 1545 1545 1544 1546 1546 1547 1548 1550 1551 1554 1555 1556 1558 1559
1534 1534 1534 1534 1534 1533 1533 1533 1533 1533 1533 1533 1533 1533 1533 1532 1533 1532 1531 1530 1529 1529 1530 1529 1529 1530 1531 1532 1534 1535 1545 1543 1545 1544 1545 1547 1548 1549 1551 1554 1556 1557 1558 1559 1560
1535 1534 1534 1534 1534 1534 1533 1533 1533 1533 1533 1532 1532 1532 1532 1532 1535 1532 1531 1530 1529 1529 1529 1530 1530 1531 1533 1535 1535 1540 1542 1542 1545 1545 1546 1548 1549 1552 1552 1556 1556 1556 1557 1559 1560
1537 1535 1534 1533 1534 1533 1534 1534 1533 1533 1533 1532 1532 1532 1533 1533 1533 1532 1531 1531 1530 1529 1529 1530 1530 1531 1534 1535 1536 1540 1543 1544 1545 1546 1547 1548 1549 1551 1554 1554 1555 1555 1557 1558 1559
1538 1536 1535 1534 1534 1533 1533 1534 1534 1534 1533 1533 1532 1532 1532 1534 1533 1532 1531 1531 1530 1529 1529 1529 1530 1531 1533 1536 1537 1540 1542 1545 1546 1547 1547 1548 1550 1550 1554 1554 1555 1556 1557 1558 1558
1540 1537 1536 1535 1534 1533 1534 1534 1534 1535 1534 1533 1533 1533 1533 1535 1532 1532 1532 1531 1530 1529 1529 1530 1530 1531 1534 1537 1540 1542 1546 1546 1547 1547 1548 1548 1552 1554 1554 1555 1556 1556 1557 1557 1557
1541 1539 1537 1536 1535 1534 1534 1535 1536 1535 1535 1534 1534 1534 1534 1534 1533 1533 1532 1531 1531 1531 1531 1531 1532 1533 1535 1539 1541 1543 1546 1554 1548 1547 1548 1549 1555 1554 1553 1553 1555 1555 1555 1555 1556
1543 1539 1537 1536 1536 1535 1535 1535 1536 1536 1536 1534 1535 1535 1535 1534 1533 1532 1532 1532 1532 1532 1532 1532 1533 1535 1539 1542 1550 1546 1552 1549 1551 1547 1547 1548 1552 1552 1551 1551 1552 1553 1553 1554 1555
1544 1540 1538 1536 1535 1536 1535 1535 1536 1535 1535 1535 1535 1538 1536 1536 1533 1532 1531 1532 1532 1532 1533 1533 1534 1539 1545 1548 1562 1552 1550 1545 1548 1549 1548 1548 1549 1550 1549 1549 1549 1551 1552 1553 1554
1545 1541 1538 1536 1535 1535 1536 1536 1539 1538 1535 1535 1536 1536 1535 1534 1534 1533 1532 1531 1531 1532 1534 1534 1544 1552 1549 1547 1547 1547 1547 1550 1548 1548 1547 1544 1546 1548 1547 1547 1548 1550 1551 1552 1553
1545 1542 1539 1537 1535 1536 1536 1535 1536 1537 1536 1535 1535 1535 1535 1533 1533 1533 1533 1534 1533 1535 1533 1540 1548 1545 1545 1545 1545 1545 1547 1555 1549 1546 1549 1545 1545 1547 1546 1546 1548 1549 1550 1550 1552
1545 1542 1539 1536 1535 1535 1535 1535 1535 1535 1535 1535 1534 1534 1535 1535 1534 1533 1532 1532 1534 1537 1539 1542 1547 1545 1544 1548 1548 1553 1552 1556 1558 1551 1546 1546 1547 1546 1546 1545 1547 1548 1548 1550 1550
1545 1541 1539 1536 1537 1534 1532 1533 1533 1534 1542 1536 1535 1533 1534 1535 1535 1533 1532 1534 1535 1540 1542 1546 1546 1545 1545 1548 1550 1551 1553 1554 1554 1557 1556 1546 1561 1544 1543 1544 1544 1545 1547 1547 1548
1544 1541 1538 1535 1534 1533 1533 1532 1534 1535 1575 1537 1534 1535 1533 1534 1537 1536 1533 1533 1536 1539 1541 1549 1547 1546 1546 1550 1550 1551 1552 1553 1552 1554 1555 1549 1560 1539 1542 1544 1541 1542 1542 1543 1544
1542 1540 1538 1536 1533 1532 1531 1533 1535 1550 1564 1535 1533 1533 1533 1533 1534 1536 1536 1535 1537 1538 1542 1548 1548 1549 1549 1548 1548 1549 1549 1553 1554 1560 1569 1548 1553 1538 1541 1532 1533 1536 1538 1539 1541
1539 1538 1536 1535 1533 1531 1532 1534 1549 1562 1535 1536 1533 1532 1532 1535 1534 1535 1538 1541 1544 1552 1548 1549 1550 1550 1549 1550 1549 1550 1556 1572 1571 1575 1561 1547 1558 1532 1529 1529 1527 1530 1533 1536 1539
1536 1535 1533 1533 1531 1531 1532 1535 1551 1532 1531 1532 1533 1532 1534 1534 1535 1536 1538 1545 1544 1543 1560 1559 1561 1551 1549 1551 1553 1552 1556 1576 1568 1577 1565 1553 1550 1530 1531 1531 1531 1532 1533 1535 1536
1532 1531 1529 1529 1529 1530 1533 1545 1535 1528 1525 1530 1533 1535 1536 1532 1533 1534 1539 1544 1544 1543 1548 1554 1550 1552 1551 1551 1553 1552 1557 1555 1562 1567 1583 1555 1538 1533 1531 1531 1530 1531 1531 1533 1534
1529 1527 1525 1526 1526 1529 1531 1531 1522 1520 1521 1524 1530 1529 1535 1533 1533 1535 1539 1540 1541 1541 1541 1545 1552 1550 1552 1552 1552 1551 1553 1563 1572 1574 1563 1552 1541 1529 1531 1530 1529 1529 1529 1530 1531
1527 1525 1520 1521 1524 1526 1530 1524 1517 1518 1519 1522 1524 1525 1524 1527 1528 1531 1535 1540 1537 1539 1539 1541 1547 1554 1553 1554 1551 1555 1555 1555 1559 1566 1570 1571 1541 1520 1521 1523 1524 1525 1525 1527 1528
1527 1524 1518 1519 1524 1519 1519 1513 1513 1516 1518 1517 1520 1518 1522 1523 1524 1528 1531 1530 1533 1535 1539 1540 1547 1553 1548 1547 1546 1546 1547 1550 1566 1555 1569 1576 1540 1516 1517 1519 1522 1524 1524 1526 1527
1524 1520 1516 1516 1519 1517 1514 1513 1512 1515 1515 1515 1518 1516 1517 1520 1526 1525 1529 1530 1531 1534 1538 1538 1546 1552 1548 1551 1548 1547 1545 1544 1548 1552 1561 1564 1530 1518 1519 1521 1521 1522 1523 1524 1525
1523 1517 1512 1510 1507 1507 1511 1512 1511 1510 1511 1511 1512 1513 1516 1519 1518 1525 1529 1530 1531 1533 1535 1535 1539 1539 1541 1533 1539 1544 1541 1542 1542 1550 1548 1534 1520 1517 1520 1519 1520 1522 1522 1523 1523
1517 1509 1503 1505 1502 1501 1502 1503 1506 1509 1509 1510 1511 1510 1511 1518 1519 1521 1525 1530 1532 1533 1535 1537 1542 1539 1535 1535 1535 1536 1536 1537 1540 1533 1536 1508 1520 1507 1515 1517 1519 1521 1522 1522 1522
1507 1505 1502 1497 1494 1496 1497 1497 1500 1501 1503 1505 1505 1503 1505 1508 1504 1511 1515 1522 1523 1532 1534 1536 1540 1543 1541 1534 1536 1536 1527 1527 1528 1525 1521 1514 1510 1512 1514 1516 1517 1519 1519 1519 1518
1499 1500 1499 1492 1491 1493 1489 1486 1490 1489 1494 1494 1496 1501 1504 1502 1502 1504 1507 1508 1512 1520 1530 1536 1539 1544 1535 1535 1536 1531 1508 1513 1516 1513 1511 1516 1506 1508 1512 1514 1516 1516 1515 1516 1516